Snowfall_Accumulation
0.0 0.0 0.0 0.0 0.0 0.0 0.0 0.0 0.0 0.0 0.0 0.0 0.0 0.0 0.0 0.0 0.0 0.0 0.0 0.0 0.0 0.0 0.0 0.0 0.0 0.0 0.0 0.0 0.0 0.0 0.0 0.0 0.0 0.0 0.0 0.0 0.0 0.0 0.0 0.0 0.0 0.0 0.0 0.0 0.0 0.0 0.0
0.0 0.0 0.0 0.0 0.0 0.0 0.0 0.0 0.0 0.0 0.0 0.0 0.0 0.0 0.0 0.0 0.0 0.0 0.0 0.0 0.0 0.0 0.0 0.0 0.0 0.0 0.0 0.0 0.0 0.0 0.0 0.0 0.0 0.0 0.0 0.0 0.0 0.0 0.0 0.0 0.0 0.0 0.0 0.0 0.0 0.0 0.0
0.0 0.0 0.0 0.0 0.0 0.0 0.0 0.0 0.0 0.0 0.0 0.0 0.0 0.0 0.0 0.0 0.0 0.0 0.0 0.0 0.0 0.0 0.0 0.0 0.0 0.0 0.0 0.0 0.0 0.0 0.0 0.0 0.0 0.0 0.0 0.0 0.0 0.0 0.0 0.0 0.0 0.0 0.0 0.0 0.0 0.0 0.0
0.0 0.0 0.0 0.0 0.0 0.0 0.0 0.0 0.0 0.0 0.0 0.0 0.0 0.0 0.0 0.0 0.0 0.0 0.0 0.0 0.0 0.0 0.0 0.0 0.0 0.0 0.0 0.0 0.0 0.0 0.0 0.0 0.0 0.0 0.0 0.0 0.0 0.0 0.0 0.0 0.0 0.0 0.0 0.0 0.0 0.0 0.0
0.0 0.0 0.0 0.0 0.0 0.0 0.0 0.0 0.0 0.0 0.0 0.0 0.0 0.0 0.0 0.0 0.0 0.0 0.0 0.0 0.0 0.0 0.0 0.0 0.0 0.0 0.0 0.0 0.0 0.0 0.0 0.0 0.0 0.0 0.0 0.0 0.0 0.0 0.0 0.0 0.0 0.0 0.0 0.0 0.0 0.0 0.0
0.0 0.0 0.0 0.0 0.0 0.0 0.0 0.0 0.0 0.0 0.0 0.0 0.0 0.0 0.0 0.0 0.0 0.0 0.0 0.0 0.0 0.0 0.0 0.0 0.0 0.0 0.0 0.0 0.0 0.0 0.0 0.0 0.0 0.0 0.0 0.0 0.0 0.0 0.0 0.0 0.4 0.0 0.0 0.0 0.0 0.0 0.0
0.0 0.0 0.0 0.0 0.0 0.0 0.0 0.0 0.0 0.0 0.0 0.0 0.0 0.0 0.0 0.0 0.0 0.0 0.0 0.0 0.0 0.0 0.0 0.0 0.0 0.0 0.0 0.0 0.0 0.0 0.0 0.0 0.0 0.0 0.0 0.0 0.0 0.0 0.0 0.0 0.0 0.1 0.2 0.0 0.0 0.0 0.0
0.0 0.0 0.0 0.0 0.0 0.0 0.0 0.0 0.0 0.0 0.0 0.0 0.0 0.0 0.0 0.0 0.0 0.0 0.0 0.0 0.0 0.0 0.0 0.0 0.0 0.0 0.0 0.0 0.0 0.0 0.0 0.0 0.0 0.0 0.0 0.0 0.0 0.0 0.0 0.0 0.0 0.0 0.0 0.2 0.0 0.0 0.0
0.0 0.0 0.0 0.0 0.0 0.0 0.0 0.0 0.0 0.0 0.0 0.0 0.0 0.0 0.0 0.0 0.0 0.0 0.0 0.0 0.0 0.0 0.1 0.0 0.0 0.0 0.0 0.0 0.0 0.0 0.0 0.0 0.0 0.0 0.0 0.0 0.0 0.0 0.0 0.0 0.0 0.0 0.0 0.0 0.0 0.0 0.0
0.0 0.0 0.0 0.0 0.0 0.0 0.0 0.0 0.0 0.0 0.0 0.0 0.0 0.0 0.0 0.0 0.0 0.0 0.0 0.0 0.0 0.0 2.6 0.0 0.0 0.0 0.0 0.0 0.0 0.0 0.0 0.0 0.0 0.0 0.0 0.0 0.0 0.0 0.0 0.0 0.0 2.6 0.0 0.0 0.0 0.0 1.1
0.0 0.0 0.0 0.0 0.0 0.0 0.0 0.0 0.0 0.0 0.0 0.0 0.0 0.0 0.0 0.0 0.0 0.0 0.0 0.0 0.0 0.0 82.4 0.0 0.0 0.0 0.0 0.0 0.0 0.0 0.0 0.0 0.0 0.0 0.0 0.1 0.0 0.0 0.1 0.1 0.0 0.0 0.0 0.0 0.0 2.6 4.1
0.0 0.0 0.0 0.0 0.0 0.0 0.0 0.0 0.0 0.0 0.0 0.0 0.0 0.0 0.0 0.0 0.0 0.0 0.0 0.0 0.0 14.0 73.1 0.0 0.0 0.0 0.0 0.0 0.0 0.0 0.0 0.0 0.0 0.0 0.0 0.0 0.0 0.0 0.1 0.0 0.0 0.0 0.0 0.0 0.2 0.8 19.8
0.0 0.0 0.0 0.0 0.0 0.0 0.0 0.0 0.0 0.0 0.0 0.0 0.0 0.0 0.0 0.0 0.0 0.0 0.0 0.0 38.3 72.2 0.0 0.0 0.0 0.0 0.0 0.0 0.0 0.0 0.0 0.0 2.1 6.3 0.8 0.0 0.0 0.0 0.0 0.0 0.0 0.0 0.9 26.1 27.4 29.0 24.8
0.0 0.0 0.0 0.0 0.0 0.0 0.0 0.0 0.0 0.0 0.0 0.0 0.0 0.0 0.0 0.0 0.0 0.0 0.0 3.9 88.4 6.5 0.0 0.0 0.0 0.0 0.4 0.2 0.0 0.0 0.0 1.1 2.6 5.1 6.6 5.8 6.5 1.3 0.5 0.3 1.7 0.5 2.1 18.6 43.8 19.2 7.0
0.0 0.0 0.0 0.0 0.0 0.0 0.0 0.0 0.0 0.0 0.0 0.0 0.0 0.0 0.0 0.0 0.0 0.0 1.9 75.9 24.5 1.5 0.5 0.8 0.0 0.6 1.4 0.5 1.4 0.6 0.1 2.3 5.0 7.8 24.7 27.6 12.0 2.8 2.0 0.7 0.1 1.6 4.7 0.5 12.3 2.3 19.3
0.0 0.0 0.0 0.0 0.0 0.0 0.0 0.0 0.0 0.0 0.0 0.0 0.0 0.0 0.0 0.0 0.0 0.0 19.7 36.0 5.6 0.8 1.3 1.5 10.3 6.2 9.8 2.7 5.5 7.4 7.6 8.0 8.5 7.9 6.7 27.1 39.1 7.7 1.6 0.0 0.0 3.5 1.2 10.0 9.4 68.6 56.1
0.0 0.0 0.0 0.0 0.0 0.0 0.0 0.0 0.0 0.0 0.0 0.0 0.0 0.7 0.0 0.0 0.0 1.5 58.8 13.7 1.1 0.0 0.0 3.8 12.3 12.7 6.7 8.5 6.4 8.1 5.7 1.4 1.1 3.9 2.8 10.6 22.6 7.0 2.5 8.4 15.6 12.8 18.1 18.5 27.4 47.0 55.4
0.0 0.0 0.0 0.0 0.0 0.0 0.0 0.0 0.0 0.0 0.0 0.0 0.0 17.9 0.0 0.0 11.6 27.6 21.9 3.8 0.0 0.0 0.0 1.1 2.5 5.4 9.0 8.6 10.1 13.5 7.8 1.8 0.0 0.6 2.7 1.8 14.6 10.9 4.0 0.6 0.6 3.4 16.7 28.0 60.3 57.4 43.5
0.0 0.0 0.0 0.0 0.0 0.0 0.0 0.0 0.0 0.0 0.0 0.0 6.6 4.3 0.0 0.0 37.8 20.0 2.7 1.6 0.9 1.6 0.8 2.2 4.2 4.9 6.5 11.4 15.6 5.9 4.5 0.0 0.0 0.8 5.8 3.4 14.2 14.6 6.2 0.9 0.2 3.8 4.7 9.5 22.3 31.6 50.9
0.0 0.0 0.0 0.0 0.0 0.0 0.0 0.0 0.0 0.0 0.0 0.0 5.2 35.3 3.8 2.7 1.5 3.2 5.2 4.3 4.4 0.0 0.7 0.1 3.4 4.0 5.8 4.4 1.9 6.8 4.4 0.2 0.0 0.0 0.0 0.0 10.7 13.9 15.6 10.5 6.1 12.9 6.6 4.4 11.7 47.2 32.5
0.0 0.0 0.0 0.0 0.0 0.0 0.0 0.0 0.0 0.0 0.0 0.0 12.5 24.8 0.1 21.5 12.2 5.0 4.1 5.8 6.1 5.7 0.5 0.2 3.5 3.4 7.3 13.3 4.7 2.6 1.3 0.4 0.0 0.2 0.0 0.5 16.5 6.2 4.0 4.0 2.4 4.4 6.9 5.0 10.2 11.3 23.9
0.0 0.0 0.0 0.0 0.0 0.0 0.0 0.0 0.0 0.0 0.0 0.0 47.3 8.6 1.8 2.0 0.1 2.9 10.5 14.6 7.1 1.4 5.0 2.1 3.7 1.7 2.9 10.1 4.6 8.3 3.1 0.4 2.7 0.0 0.2 0.1 8.0 7.2 7.1 3.3 1.2 7.0 7.8 4.3 4.1 8.4 11.1
0.0 0.0 0.0 0.0 0.0 0.0 0.0 0.0 0.0 0.0 0.0 0.0 1.4 0.0 3.5 3.0 1.8 5.9 4.8 2.7 3.7 2.7 0.3 0.7 1.7 4.4 4.9 2.1 0.3 0.2 0.5 0.8 2.0 4.1 3.2 3.3 6.3 6.9 10.8 0.9 2.3 11.7 14.0 8.2 5.3 3.8 4.5
0.0 0.0 0.0 0.0 0.0 0.0 0.0 0.0 0.0 0.0 0.0 0.0 0.0 0.6 14.3 17.6 5.2 2.5 0.3 1.0 1.8 1.5 5.6 1.1 0.3 2.0 0.0 0.0 0.0 0.0 0.2 0.1 0.1 0.8 1.0 5.8 5.6 8.1 10.0 5.6 28.7 11.0 1.6 2.0 2.4 2.3 2.6
0.0 0.0 0.0 0.0 0.0 0.0 0.0 0.0 0.0 0.0 0.0 0.0 0.0 0.1 10.4 18.2 1.5 2.0 2.0 2.8 0.2 0.5 2.0 1.3 0.6 0.0 0.0 0.6 3.5 5.8 3.0 1.8 0.7 0.1 0.5 1.0 4.8 16.1 17.2 7.3 4.2 2.4 1.8 2.7 2.7 3.4 1.6
0.0 0.0 0.0 0.0 0.0 0.0 0.0 0.0 0.0 0.0 0.0 0.0 0.0 0.0 5.9 23.7 5.9 0.4 4.7 3.2 5.8 2.9 3.8 1.8 0.0 0.0 0.0 3.1 10.9 17.4 7.3 2.9 1.7 0.9 0.0 0.4 2.0 18.4 19.9 18.7 10.9 2.8 0.5 0.1 0.6 6.8 0.8
0.0 0.0 0.0 0.0 0.0 0.0 0.0 0.0 0.0 0.0 0.0 0.0 0.0 0.0 2.4 26.8 0.2 0.4 2.3 4.6 2.0 3.2 5.0 0.8 1.2 0.1 0.5 8.4 15.1 14.2 10.4 3.9 9.0 6.8 4.2 8.1 12.3 29.1 23.5 30.9 8.7 1.5 0.6 0.2 9.4 9.8 0.8
0.0 0.0 0.0 0.0 0.0 0.0 0.0 0.0 0.0 0.0 0.0 0.0 0.0 0.0 0.0 10.7 0.5 0.0 0.0 0.5 0.6 0.9 7.2 2.4 7.3 5.0 8.7 20.0 17.9 13.2 12.8 9.2 7.8 2.3 8.5 12.7 17.3 15.0 17.5 29.5 25.5 1.2 1.0 4.0 4.6 0.5 0.5
0.0 0.0 0.0 0.0 0.0 0.0 0.0 0.0 0.0 0.0 0.0 0.0 2.1 0.0 0.0 1.6 0.0 0.0 0.0 0.0 0.0 0.0 0.9 2.4 6.5 6.8 9.1 21.7 14.3 5.8 9.6 10.5 7.1 16.0 1.4 12.4 7.5 11.7 10.0 17.7 6.1 3.9 3.7 1.0 0.4 1.2 1.0